Current weather by "City, St" or "zip code"  
 
Advertise Here

Current Conditions: Columbus, Columbus Municipal Airport, NE

Overcast


35.0 F

Last Updated on Feb 28 2021, 5:56 am CST
Humidity: 89%
Wind Speed: NW 15.0 mph
Barometer 29.88 in
Dewpoint: 32.0 F
Visibility: 10.00 mi
Precip: --
Heat Index: NA
Wind Chill: 25 F
Current conditions at:

Columbus, Columbus Municipal Airport, NE (KOLU)

Lat: 41.45 Lon: 97.33333

Local Radar Image active severe weather and emergency alerts image image weather storm and storm spotter reports image weather observation monitoring service image
Local
Radar
Active
Alerts
Storm Reports Obs
Monitoring

Sign-up For Email & Text Message Weather Alert Notification Services


Advertise Here

Observation History for Columbus, Columbus Municipal Airport, NE


Time Wind
(mph)
Vis
(mi)
Weather Precip (in) Temperature (F) Relative
Humidity
Wind
Chill
(F)
Heat
Index
(F)
Pressure
Air Dwpt altimeter
(in)
sea level
(mb)
Rmks
5:56 am CST NW 15.0 10.00 Overcast -- 35.0 32.0 89% 25 NA 29.88 1012.9
4:56 am CST W 15.0 10.00 Overcast -- 34.0 32.0 92% 24 NA 29.84 1011.7
3:56 am CST W 18.4 10.00 Overcast -- 34.0 32.0 92% 23 NA 29.81 1010.4
2:56 am CST W 15.0 10.00 Overcast -- 34.0 32.0 92% 24 NA 29.81 1010.5
1:56 am CST W 13.8 10.00 Fair -- 32.0 30.0 92% 22 NA 29.80 1010.3
12:56 am CST W 13.8 10.00 Fair -- 34.0 32.0 92% 25 NA 29.78 1009.2
11:56 pm CST W 8.1 10.00 Fair -- 34.0 32.0 92% 27 NA 29.76 1008.8
10:56 pm CST W 5.8 10.00 Fair -- 34.0 33.1 97% 29 NA 29.75 1008.5
9:56 pm CST NW 5.8 10.00 A Few Clouds -- 34.0 33.1 97% 29 NA 29.74 1008.2
8:56 pm CST W 4.6 10.00 A Few Clouds -- 35.0 33.1 93% 31 NA 29.72 1007.6
7:56 pm CST N 4.6 10.00 Fair -- 37.0 35.1 93% 33 NA 29.71 1007.4
6:56 pm CST NE 5.8 10.00 Fair -- 39.0 36.0 89% 35 NA 29.70 1007.2
5:56 pm CST E 10.4 10.00 Fair -- 44.0 39.0 83% 38 NA 29.67 1006.0
4:56 pm CST E 13.8 10.00 Overcast -- 48.0 41.0 77% 42 NA 29.66 1005.6
3:56 pm CST E 11.5 10.00 Overcast -- 48.0 39.0 71% 43 NA 29.68 1006.3
2:56 pm CST E 18.4 10.00 Overcast -- 50.0 39.0 66% 44 NA 29.69 1006.5
1:56 pm CST E 17.3 10.00 Overcast -- 48.0 37.0 66% 42 NA 29.71 1007.1
12:56 pm CST E 15.0 10.00 Fair -- 51.0 36.0 56% 46 NA 29.77 1009.1
11:56 am CST E 13.8 10.00 Fair -- 48.0 30.9 52% 42 NA 29.83 1011.1
10:56 am CST NE 8.1 10.00 Fair -- 43.0 30.9 63% 38 NA 29.86 1012.5
9:56 am CST E 5.8 10.00 Fair -- 40.0 27.0 60% 36 NA 29.88 1013.2
8:56 am CST SE 5.8 10.00 Fair -- 36.0 28.9 76% 31 NA 29.90 1013.7
7:56 am CST N 0.0 10.00 Mostly Cloudy -- 29.0 27.0 92% NA NA 29.88 1013.4
6:56 am CST N 0.0 10.00 Fair -- 23.0 21.0 92% NA NA 29.85 1012.8

Regional Weather Observation


Columbus, Columbus Municipal Airport, NE (KOLU)

Overcast
35.0 F

Albion Municipal Airport, NE (KBVN)

Overcast
34.0 F

Fremont Municipal Airport, NE (KFET)

Overcast
36.0 F

Wahoo, NE (KAHQ)

Overcast
36.0 F

Wayne, Wayne Municipal Airport, NE (KLCG)

Overcast and Windy
32.0 F

York, York Municipal Airport, NE (KJYR)

Fair
-18.0 F
Advertise Here

Advertise Here